Time,TemperatureF,DewpointF,PressureIn,WindDirection,WindDirectionDegrees,WindSpeedMPH,WindSpeedGustMPH,Humidity,HourlyPrecipIn,Conditions,Clouds,dailyrainin,SoftwareType,DateUTC
2013-10-31 00:00:00,33.4,31.9,30.25,NNE,21,0.0,0.0,94,0.00,,---,0.00,VWS V14.01,2013-10-31 04:00:00,
2013-10-31 00:05:00,33.4,32.1,30.26,NNE,21,0.0,0.0,95,0.00,,---,0.00,VWS V14.01,2013-10-31 04:05:00,
2013-10-31 00:10:00,33.4,32.1,30.25,NNE,21,0.0,0.0,95,0.00,,---,0.00,VWS V14.01,2013-10-31 04:10:00,
2013-10-31 00:15:00,33.4,32.1,30.26,NNE,21,0.0,0.0,95,0.00,,---,0.00,VWS V14.01,2013-10-31 04:15:00,
2013-10-31 00:20:00,33.3,32.0,30.26,NNE,21,0.0,0.0,95,0.00,,---,0.00,VWS V14.01,2013-10-31 04:20:00,
2013-10-31 00:25:00,33.3,32.0,30.26,NNE,21,0.0,0.0,95,0.00,,---,0.00,VWS V14.01,2013-10-31 04:25:00,
2013-10-31 00:30:00,33.2,31.9,30.26,NNE,21,0.0,0.0,95,0.00,,---,0.00,VWS V14.01,2013-10-31 04:30:00,
2013-10-31 00:35:00,33.2,31.9,30.26,NNE,21,0.0,0.0,95,0.00,,---,0.00,VWS V14.01,2013-10-31 04:35:00,
2013-10-31 00:40:00,33.2,31.9,30.25,NNE,21,0.0,0.0,95,0.00,,---,0.00,VWS V14.01,2013-10-31 04:40:00,
2013-10-31 00:45:00,33.0,31.7,30.25,NNE,21,0.0,0.0,95,0.00,,---,0.00,VWS V14.01,2013-10-31 04:45:00,
2013-10-31 00:50:00,33.0,31.7,30.25,NNE,21,0.0,0.0,95,0.00,,---,0.00,VWS V14.01,2013-10-31 04:50:00,
2013-10-31 00:55:00,33.0,31.7,30.25,NNE,21,0.0,0.0,95,0.00,,---,0.00,VWS V14.01,2013-10-31 04:55:00,
2013-10-31 01:00:00,33.0,31.7,30.25,NNE,21,0.0,0.0,95,0.00,,---,0.00,VWS V14.01,2013-10-31 05:00:00,
2013-10-31 01:05:00,32.9,31.6,30.25,NNE,21,0.0,0.0,95,0.00,,---,0.00,VWS V14.01,2013-10-31 05:05:00,
2013-10-31 01:10:00,32.8,31.5,30.25,NNE,21,0.0,0.0,95,0.00,,---,0.00,VWS V14.01,2013-10-31 05:10:00,
2013-10-31 01:15:00,32.8,31.5,30.25,NNE,21,0.0,0.0,95,0.00,,---,0.00,VWS V14.01,2013-10-31 05:15:00,
2013-10-31 01:20:00,32.8,31.5,30.25,NNE,21,0.0,0.0,95,0.00,,---,0.00,VWS V14.01,2013-10-31 05:20:00,
2013-10-31 01:25:00,32.7,31.4,30.25,NNE,21,0.0,0.0,95,0.00,,---,0.00,VWS V14.01,2013-10-31 05:25:00,
2013-10-31 01:30:00,32.7,31.4,30.25,NNE,21,0.0,0.0,95,0.00,,---,0.00,VWS V14.01,2013-10-31 05:30:00,
2013-10-31 01:35:00,32.7,31.4,30.26,NNE,21,0.0,0.0,95,0.00,,---,0.00,VWS V14.01,2013-10-31 05:35:00,
2013-10-31 01:40:00,32.6,31.3,30.26,NNE,21,0.0,0.0,95,0.00,,---,0.00,VWS V14.01,2013-10-31 05:40:00,
2013-10-31 01:45:00,32.6,31.3,30.26,NNE,21,0.0,0.0,95,0.00,,---,0.00,VWS V14.01,2013-10-31 05:45:00,
2013-10-31 01:50:00,32.6,31.3,30.26,NNE,21,0.0,0.0,95,0.00,,---,0.00,VWS V14.01,2013-10-31 05:50:00,
2013-10-31 01:55:00,32.6,31.3,30.26,NNE,21,0.0,0.0,95,0.00,,---,0.00,VWS V14.01,2013-10-31 05:55:00,
2013-10-31 02:00:00,32.6,31.3,30.25,NNE,21,0.0,0.0,95,0.00,,---,0.00,VWS V14.01,2013-10-31 06:00:00,
2013-10-31 02:05:00,32.5,31.2,30.25,NNE,21,0.0,0.0,95,0.00,,---,0.00,VWS V14.01,2013-10-31 06:05:00,
2013-10-31 02:10:00,32.4,31.1,30.25,NNE,21,0.0,0.0,95,0.00,,---,0.00,VWS V14.01,2013-10-31 06:10:00,
2013-10-31 02:15:00,32.3,31.0,30.25,NNE,21,0.0,0.0,95,0.00,,---,0.00,VWS V14.01,2013-10-31 06:15:00,
2013-10-31 02:20:00,32.2,30.9,30.25,NNE,21,0.0,0.0,95,0.00,,---,0.00,VWS V14.01,2013-10-31 06:20:00,
2013-10-31 02:25:00,32.1,30.8,30.25,NNE,21,0.0,0.0,95,0.00,,---,0.00,VWS V14.01,2013-10-31 06:25:00,
2013-10-31 02:30:00,32.1,30.8,30.25,NNE,21,0.0,0.0,95,0.00,,---,0.00,VWS V14.01,2013-10-31 06:30:00,
2013-10-31 02:35:00,32.0,30.7,30.24,NNE,21,0.0,0.0,95,0.00,,---,0.00,VWS V14.01,2013-10-31 06:35:00,
2013-10-31 02:40:00,31.9,30.6,30.24,NNE,21,0.0,0.0,95,0.00,,---,0.00,VWS V14.01,2013-10-31 06:40:00,
2013-10-31 02:45:00,32.0,30.7,30.24,NNE,21,0.0,0.0,95,0.00,,---,0.00,VWS V14.01,2013-10-31 06:45:00,
2013-10-31 02:50:00,32.0,30.7,30.23,NNE,21,0.0,0.0,95,0.00,,---,0.00,VWS V14.01,2013-10-31 06:50:00,
2013-10-31 02:55:00,32.1,31.1,30.24,NNE,21,0.0,0.0,96,0.00,,---,0.00,VWS V14.01,2013-10-31 06:55:00,
2013-10-31 03:00:00,32.0,31.0,30.23,NNE,21,0.0,0.0,96,0.00,,---,0.00,VWS V14.01,2013-10-31 07:00:00,
2013-10-31 03:05:00,32.0,31.0,30.23,NNE,21,0.0,0.0,96,0.00,,---,0.00,VWS V14.01,2013-10-31 07:05:00,
2013-10-31 03:10:00,32.1,31.1,30.23,NNE,21,0.0,0.0,96,0.00,,---,0.00,VWS V14.01,2013-10-31 07:10:00,
2013-10-31 03:15:00,32.2,31.2,30.24,NNE,21,0.0,0.0,96,0.00,,---,0.00,VWS V14.01,2013-10-31 07:15:00,
2013-10-31 03:20:00,32.3,31.3,30.24,NNE,21,0.0,0.0,96,0.00,,---,0.00,VWS V14.01,2013-10-31 07:20:00,
2013-10-31 03:25:00,32.2,31.2,30.23,NNE,21,0.0,0.0,96,0.00,,---,0.00,VWS V14.01,2013-10-31 07:25:00,
2013-10-31 03:30:00,32.1,31.1,30.24,NNE,21,0.0,0.0,96,0.00,,---,0.00,VWS V14.01,2013-10-31 07:30:00,
2013-10-31 03:35:00,32.0,30.7,30.24,NNE,21,0.0,0.0,95,0.00,,---,0.00,VWS V14.01,2013-10-31 07:35:00,
2013-10-31 03:40:00,31.9,30.6,30.24,NNE,21,0.0,0.0,95,0.00,,---,0.00,VWS V14.01,2013-10-31 07:40:00,
2013-10-31 03:45:00,31.9,30.9,30.24,NNE,21,0.0,0.0,96,0.00,,---,0.00,VWS V14.01,2013-10-31 07:45:00,
2013-10-31 03:50:00,31.8,30.5,30.24,NNE,21,0.0,0.0,95,0.00,,---,0.00,VWS V14.01,2013-10-31 07:50:00,
2013-10-31 03:55:00,31.8,30.5,30.24,NNE,21,0.0,0.0,95,0.00,,---,0.00,VWS V14.01,2013-10-31 07:55:00,
2013-10-31 04:00:00,31.7,30.4,30.24,NNE,21,0.0,0.0,95,0.00,,---,0.00,VWS V14.01,2013-10-31 08:00:00,
2013-10-31 04:05:00,31.7,30.4,30.24,NNE,21,0.0,0.0,95,0.00,,---,0.00,VWS V14.01,2013-10-31 08:05:00,
2013-10-31 04:10:00,31.7,30.4,30.23,NNE,21,0.0,0.0,95,0.00,,---,0.00,VWS V14.01,2013-10-31 08:10:00,
2013-10-31 04:15:00,31.6,30.6,30.23,NNE,21,0.0,0.0,96,0.00,,---,0.00,VWS V14.01,2013-10-31 08:15:00,
2013-10-31 04:20:00,31.5,30.5,30.23,NNE,21,0.0,0.0,96,0.00,,---,0.00,VWS V14.01,2013-10-31 08:20:00,
2013-10-31 04:25:00,31.5,30.5,30.23,NNE,21,0.0,0.0,96,0.00,,---,0.00,VWS V14.01,2013-10-31 08:25:00,
2013-10-31 04:30:00,31.4,30.4,30.23,NNE,21,0.0,0.0,96,0.00,,---,0.00,VWS V14.01,2013-10-31 08:30:00,
2013-10-31 04:35:00,31.4,30.4,30.22,NNE,21,0.0,0.0,96,0.00,,---,0.00,VWS V14.01,2013-10-31 08:35:00,
2013-10-31 04:40:00,31.4,30.4,30.22,NNE,21,0.0,0.0,96,0.00,,---,0.00,VWS V14.01,2013-10-31 08:40:00,
2013-10-31 04:45:00,31.3,30.3,30.22,NNE,21,0.0,0.0,96,0.00,,---,0.00,VWS V14.01,2013-10-31 08:45:00,
2013-10-31 04:50:00,31.3,30.0,30.22,NNE,21,0.0,0.0,95,0.00,,---,0.00,VWS V14.01,2013-10-31 08:50:00,
2013-10-31 04:55:00,31.2,29.9,30.22,NNE,21,0.0,0.0,95,0.00,,---,0.00,VWS V14.01,2013-10-31 08:55:00,
2013-10-31 05:00:00,31.2,29.9,30.21,NNE,21,0.0,0.0,95,0.00,,---,0.00,VWS V14.01,2013-10-31 09:00:00,
2013-10-31 05:05:00,31.2,30.2,30.21,NNE,21,0.0,0.0,96,0.00,,---,0.00,VWS V14.01,2013-10-31 09:05:00,
2013-10-31 05:10:00,31.2,30.2,30.21,NNE,21,0.0,0.0,96,0.00,,---,0.00,VWS V14.01,2013-10-31 09:10:00,
2013-10-31 05:15:00,31.2,30.2,30.21,NNE,21,0.0,0.0,96,0.00,,---,0.00,VWS V14.01,2013-10-31 09:15:00,
2013-10-31 05:20:00,31.4,30.4,30.22,NNE,21,0.0,0.0,96,0.00,,---,0.00,VWS V14.01,2013-10-31 09:20:00,
2013-10-31 05:25:00,31.4,30.4,30.22,NNE,21,0.0,0.0,96,0.00,,---,0.00,VWS V14.01,2013-10-31 09:25:00,
2013-10-31 05:30:00,31.5,30.5,30.22,NNE,21,0.0,0.0,96,0.00,,---,0.00,VWS V14.01,2013-10-31 09:30:00,
2013-10-31 05:35:00,31.6,30.6,30.22,NNE,21,0.0,0.0,96,0.00,,---,0.00,VWS V14.01,2013-10-31 09:35:00,
2013-10-31 05:40:00,31.7,30.7,30.22,NNE,21,0.0,0.0,96,0.00,,---,0.00,VWS V14.01,2013-10-31 09:40:00,
2013-10-31 05:45:00,31.8,30.8,30.22,NNE,21,0.0,0.0,96,0.00,,---,0.00,VWS V14.01,2013-10-31 09:45:00,
2013-10-31 05:50:00,31.9,30.9,30.23,NNE,21,0.0,0.0,96,0.00,,---,0.00,VWS V14.01,2013-10-31 09:50:00,
2013-10-31 05:55:00,32.0,31.0,30.23,NNE,21,0.0,0.0,96,0.00,,---,0.00,VWS V14.01,2013-10-31 09:55:00,
2013-10-31 06:00:00,32.1,31.1,30.23,NNE,21,0.0,0.0,96,0.00,,---,0.00,VWS V14.01,2013-10-31 10:00:00,
2013-10-31 06:05:00,32.1,31.1,30.23,NNE,21,0.0,0.0,96,0.00,,---,0.00,VWS V14.01,2013-10-31 10:05:00,
2013-10-31 06:10:00,32.1,31.1,30.22,NNE,21,0.0,0.0,96,0.00,,---,0.00,VWS V14.01,2013-10-31 10:10:00,
2013-10-31 06:15:00,32.2,31.2,30.22,NNE,21,0.0,0.0,96,0.00,,---,0.00,VWS V14.01,2013-10-31 10:15:00,
2013-10-31 06:20:00,32.1,31.1,30.22,NNE,21,0.0,0.0,96,0.00,,---,0.00,VWS V14.01,2013-10-31 10:20:00,
2013-10-31 06:25:00,32.2,31.2,30.22,NNE,21,0.0,0.0,96,0.00,,---,0.00,VWS V14.01,2013-10-31 10:25:00,
2013-10-31 06:30:00,32.2,31.2,30.21,NNE,21,0.0,0.0,96,0.00,,---,0.00,VWS V14.01,2013-10-31 10:30:00,
2013-10-31 06:35:00,32.2,31.2,30.21,NNE,21,0.0,0.0,96,0.00,,---,0.00,VWS V14.01,2013-10-31 10:35:00,
2013-10-31 06:40:00,32.2,31.2,30.21,NNE,21,0.0,0.0,96,0.00,,---,0.00,VWS V14.01,2013-10-31 10:40:00,
2013-10-31 06:45:00,32.2,31.2,30.22,NNE,21,0.0,0.0,96,0.00,,---,0.00,VWS V14.01,2013-10-31 10:45:00,
2013-10-31 06:50:00,32.1,31.1,30.22,NNE,21,0.0,0.0,96,0.00,,---,0.00,VWS V14.01,2013-10-31 10:50:00,
2013-10-31 06:55:00,32.1,31.1,30.21,NNE,21,0.0,0.0,96,0.00,,---,0.00,VWS V14.01,2013-10-31 10:55:00,
2013-10-31 07:00:00,32.0,31.0,30.21,NNE,21,0.0,0.0,96,0.00,,---,0.00,VWS V14.01,2013-10-31 11:00:00,
2013-10-31 07:05:00,32.0,31.0,30.22,NNE,21,0.0,0.0,96,0.00,,---,0.00,VWS V14.01,2013-10-31 11:05:00,
2013-10-31 07:10:00,32.0,31.0,30.22,NNE,21,0.0,0.0,96,0.00,,---,0.00,VWS V14.01,2013-10-31 11:10:00,
2013-10-31 07:15:00,32.1,31.1,30.22,NNE,21,0.0,0.0,96,0.00,,---,0.00,VWS V14.01,2013-10-31 11:15:00,
2013-10-31 07:20:00,32.1,31.1,30.22,NNE,21,0.0,0.0,96,0.00,,---,0.00,VWS V14.01,2013-10-31 11:20:00,
2013-10-31 07:25:00,32.2,31.2,30.22,NNE,21,0.0,0.0,96,0.00,,---,0.00,VWS V14.01,2013-10-31 11:25:00,
2013-10-31 07:30:00,32.2,31.2,30.22,NNE,21,0.0,0.0,96,0.00,,---,0.00,VWS V14.01,2013-10-31 11:30:00,
2013-10-31 07:35:00,32.2,31.2,30.22,NNE,21,0.0,0.0,96,0.00,,---,0.00,VWS V14.01,2013-10-31 11:35:00,
2013-10-31 07:40:00,32.3,31.3,30.22,NNE,21,0.0,0.0,96,0.00,,---,0.00,VWS V14.01,2013-10-31 11:40:00,
2013-10-31 07:45:00,32.5,31.5,30.22,NNE,21,0.0,0.0,96,0.00,,---,0.00,VWS V14.01,2013-10-31 11:45:00,
2013-10-31 07:50:00,33.0,32.2,30.23,NNE,21,0.0,0.0,97,0.00,,---,0.00,VWS V14.01,2013-10-31 11:50:00,
2013-10-31 07:55:00,33.3,32.5,30.23,NNE,21,0.0,0.0,97,0.00,,---,0.00,VWS V14.01,2013-10-31 11:55:00,
2013-10-31 08:00:00,33.6,32.8,30.22,NNE,21,0.0,0.0,97,0.00,,---,0.00,VWS V14.01,2013-10-31 12:00:00,
2013-10-31 08:05:00,33.8,33.0,30.22,NNE,21,0.0,0.0,97,0.00,,---,0.00,VWS V14.01,2013-10-31 12:05:00,
2013-10-31 08:10:00,34.1,33.3,30.23,NNE,21,0.0,0.0,97,0.00,,---,0.00,VWS V14.01,2013-10-31 12:10:00,
2013-10-31 08:15:00,34.4,33.6,30.23,NNE,21,0.0,0.0,97,0.00,,---,0.00,VWS V14.01,2013-10-31 12:15:00,
2013-10-31 08:20:00,34.6,33.8,30.23,NNE,21,0.0,0.0,97,0.00,,---,0.00,VWS V14.01,2013-10-31 12:20:00,
2013-10-31 08:25:00,35.0,34.2,30.22,NNE,21,0.0,0.0,97,0.00,,---,0.00,VWS V14.01,2013-10-31 12:25:00,
2013-10-31 08:30:00,35.3,34.5,30.23,NNE,21,0.0,0.0,97,0.00,,---,0.00,VWS V14.01,2013-10-31 12:30:00,
2013-10-31 08:35:00,35.8,35.0,30.23,NNE,21,0.0,0.0,97,0.00,,---,0.00,VWS V14.01,2013-10-31 12:35:00,
2013-10-31 08:40:00,36.5,35.7,30.23,NNE,21,0.0,0.0,97,0.00,,---,0.00,VWS V14.01,2013-10-31 12:40:00,
2013-10-31 08:45:00,37.0,36.2,30.23,NNE,21,0.0,0.0,97,0.00,,---,0.00,VWS V14.01,2013-10-31 12:45:00,
2013-10-31 08:50:00,37.5,36.7,30.23,NNE,21,0.0,0.0,97,0.00,,---,0.00,VWS V14.01,2013-10-31 12:50:00,
2013-10-31 08:55:00,37.9,37.1,30.23,NNE,21,0.0,0.0,97,0.00,,---,0.00,VWS V14.01,2013-10-31 12:55:00,
2013-10-31 09:00:00,38.3,37.5,30.23,NNE,21,0.0,0.0,97,0.00,,---,0.00,VWS V14.01,2013-10-31 13:00:00,
2013-10-31 09:05:00,38.8,38.0,30.23,NNE,21,0.0,0.0,97,0.00,,---,0.00,VWS V14.01,2013-10-31 13:05:00,
2013-10-31 09:10:00,39.3,38.5,30.23,NNE,21,0.0,0.0,97,0.00,,---,0.00,VWS V14.01,2013-10-31 13:10:00,
2013-10-31 09:15:00,39.8,39.0,30.23,NNE,21,0.0,0.0,97,0.00,,---,0.00,VWS V14.01,2013-10-31 13:15:00,
2013-10-31 09:20:00,40.2,39.4,30.22,NNE,21,0.0,0.0,97,0.00,,---,0.00,VWS V14.01,2013-10-31 13:20:00,
2013-10-31 09:25:00,40.7,39.9,30.22,NNE,21,0.0,0.0,97,0.00,,---,0.00,VWS V14.01,2013-10-31 13:25:00,
2013-10-31 09:30:00,41.3,40.5,30.22,NNE,21,0.0,0.0,97,0.00,,---,0.00,VWS V14.01,2013-10-31 13:30:00,
2013-10-31 09:35:00,41.7,41.2,30.21,NNE,21,0.0,0.0,98,0.00,,---,0.00,VWS V14.01,2013-10-31 13:35:00,
2013-10-31 09:40:00,42.3,41.8,30.21,NNE,21,0.0,0.0,98,0.00,,---,0.00,VWS V14.01,2013-10-31 13:40:00,
2013-10-31 09:45:00,42.9,42.4,30.21,NNE,21,0.0,0.0,98,0.00,,---,0.00,VWS V14.01,2013-10-31 13:45:00,
2013-10-31 09:50:00,43.6,43.1,30.21,NNE,21,0.0,0.0,98,0.00,,---,0.00,VWS V14.01,2013-10-31 13:50:00,
2013-10-31 09:55:00,44.2,43.7,30.21,NNE,21,0.0,0.0,98,0.00,,---,0.00,VWS V14.01,2013-10-31 13:55:00,
2013-10-31 10:00:00,44.8,44.3,30.20,NNE,21,0.0,0.0,98,0.00,,---,0.00,VWS V14.01,2013-10-31 14:00:00,
2013-10-31 10:05:00,45.3,44.8,30.20,NNE,21,0.0,0.0,98,0.00,,---,0.00,VWS V14.01,2013-10-31 14:05:00,
2013-10-31 10:10:00,45.6,45.1,30.19,NNE,21,0.0,0.0,98,0.00,,---,0.00,VWS V14.01,2013-10-31 14:10:00,
2013-10-31 10:15:00,45.9,45.4,30.19,NNE,21,0.0,0.0,98,0.00,,---,0.00,VWS V14.01,2013-10-31 14:15:00,
2013-10-31 10:20:00,46.1,45.6,30.20,NNE,21,0.0,1.0,98,0.00,,---,0.00,VWS V14.01,2013-10-31 14:20:00,
2013-10-31 10:25:00,46.4,45.9,30.19,NNE,21,0.0,0.0,98,0.00,,---,0.00,VWS V14.01,2013-10-31 14:25:00,
2013-10-31 10:30:00,46.6,46.1,30.19,SSE,153,0.0,1.0,98,0.00,,---,0.00,VWS V14.01,2013-10-31 14:30:00,
2013-10-31 10:35:00,46.7,46.2,30.19,SSE,153,0.0,0.0,98,0.00,,---,0.00,VWS V14.01,2013-10-31 14:35:00,
2013-10-31 10:40:00,46.8,46.3,30.18,SE,140,0.0,2.0,98,0.00,,---,0.00,VWS V14.01,2013-10-31 14:40:00,
2013-10-31 10:45:00,47.0,46.5,30.18,NE,35,0.0,2.0,98,0.00,,---,0.00,VWS V14.01,2013-10-31 14:45:00,
2013-10-31 10:50:00,47.2,46.7,30.18,NE,35,0.0,1.0,98,0.00,,---,0.00,VWS V14.01,2013-10-31 14:50:00,
2013-10-31 10:55:00,47.4,46.9,30.18,NNE,21,0.0,1.0,98,0.00,,---,0.00,VWS V14.01,2013-10-31 14:55:00,
2013-10-31 11:00:00,47.8,47.3,30.18,North,352,1.0,1.0,98,0.00,,---,0.00,VWS V14.01,2013-10-31 15:00:00,
2013-10-31 11:05:00,48.1,47.6,30.18,NW,309,0.0,2.0,98,0.00,,---,0.00,VWS V14.01,2013-10-31 15:05:00,
2013-10-31 11:10:00,48.4,47.9,30.18,NW,309,0.0,1.0,98,0.00,,---,0.00,VWS V14.01,2013-10-31 15:10:00,
2013-10-31 11:15:00,48.6,48.1,30.17,WSW,245,0.0,1.0,98,0.00,,---,0.00,VWS V14.01,2013-10-31 15:15:00,
2013-10-31 11:20:00,48.8,48.3,30.17,WSW,245,0.0,0.0,98,0.00,,---,0.00,VWS V14.01,2013-10-31 15:20:00,
2013-10-31 11:25:00,49.0,48.2,30.17,WSW,245,0.0,1.0,97,0.00,,---,0.00,VWS V14.01,2013-10-31 15:25:00,
2013-10-31 11:30:00,49.4,48.6,30.16,SE,143,0.0,4.0,97,0.00,,---,0.00,VWS V14.01,2013-10-31 15:30:00,
2013-10-31 11:35:00,49.7,48.9,30.16,North,7,0.0,4.0,97,0.00,,---,0.00,VWS V14.01,2013-10-31 15:35:00,
2013-10-31 11:40:00,50.0,49.2,30.16,NNE,30,0.0,2.0,97,0.00,,---,0.00,VWS V14.01,2013-10-31 15:40:00,
2013-10-31 11:45:00,50.5,49.7,30.15,NNE,30,1.0,1.0,97,0.00,,---,0.00,VWS V14.01,2013-10-31 15:45:00,
2013-10-31 11:50:00,51.2,50.4,30.15,NE,35,0.0,2.0,97,0.00,,---,0.00,VWS V14.01,2013-10-31 15:50:00,
2013-10-31 11:55:00,51.8,50.7,30.15,ESE,106,0.0,3.0,96,0.00,,---,0.00,VWS V14.01,2013-10-31 15:55:00,
2013-10-31 12:00:00,52.4,51.0,30.15,West,281,3.0,4.0,95,0.00,,---,0.00,VWS V14.01,2013-10-31 16:00:00,
2013-10-31 12:05:00,52.9,51.2,30.15,West,271,0.0,3.0,94,0.00,,---,0.00,VWS V14.01,2013-10-31 16:05:00,
2013-10-31 12:10:00,53.2,51.2,30.15,WSW,246,0.0,2.0,93,0.00,,---,0.00,VWS V14.01,2013-10-31 16:10:00,
2013-10-31 12:15:00,53.5,51.2,30.14,SE,124,1.0,2.0,92,0.00,,---,0.00,VWS V14.01,2013-10-31 16:15:00,
2013-10-31 12:20:00,53.8,51.5,30.14,NNE,21,1.0,2.0,92,0.00,,---,0.00,VWS V14.01,2013-10-31 16:20:00,
2013-10-31 12:25:00,54.0,51.4,30.13,NNE,21,0.0,2.0,91,0.00,,---,0.00,VWS V14.01,2013-10-31 16:25:00,
2013-10-31 12:30:00,54.2,51.6,30.13,NNE,21,0.0,2.0,91,0.00,,---,0.00,VWS V14.01,2013-10-31 16:30:00,
2013-10-31 12:35:00,54.4,51.8,30.12,NNE,13,0.0,1.0,91,0.00,,---,0.00,VWS V14.01,2013-10-31 16:35:00,
2013-10-31 12:40:00,54.6,52.0,30.12,NNE,13,0.0,1.0,91,0.00,,---,0.00,VWS V14.01,2013-10-31 16:40:00,
2013-10-31 12:45:00,54.8,52.2,30.12,NNE,13,0.0,1.0,91,0.00,,---,0.00,VWS V14.01,2013-10-31 16:45:00,
2013-10-31 12:50:00,55.0,52.4,30.11,SSW,207,0.0,2.0,91,0.00,,---,0.00,VWS V14.01,2013-10-31 16:50:00,
2013-10-31 12:55:00,55.3,52.7,30.11,SSW,208,0.0,1.0,91,0.00,,---,0.00,VWS V14.01,2013-10-31 16:55:00,
2013-10-31 13:00:00,55.5,52.9,30.11,SE,130,0.0,1.0,91,0.00,,---,0.00,VWS V14.01,2013-10-31 17:00:00,
2013-10-31 13:05:00,55.8,53.2,30.11,NW,313,1.0,3.0,91,0.00,,---,0.00,VWS V14.01,2013-10-31 17:05:00,
2013-10-31 13:10:00,56.1,53.5,30.10,NNE,30,2.0,4.0,91,0.00,,---,0.00,VWS V14.01,2013-10-31 17:10:00,
2013-10-31 13:15:00,56.5,53.6,30.10,SW,215,0.0,5.0,90,0.00,,---,0.00,VWS V14.01,2013-10-31 17:15:00,
2013-10-31 13:20:00,56.8,53.9,30.09,WSW,238,1.0,2.0,90,0.00,,---,0.00,VWS V14.01,2013-10-31 17:20:00,
2013-10-31 13:25:00,57.1,54.2,30.09,East,84,0.0,5.0,90,0.00,,---,0.00,VWS V14.01,2013-10-31 17:25:00,
2013-10-31 13:30:00,57.4,54.5,30.09,North,349,2.0,4.0,90,0.00,,---,0.00,VWS V14.01,2013-10-31 17:30:00,
2013-10-31 13:35:00,57.6,54.7,30.08,ENE,59,0.0,4.0,90,0.00,,---,0.00,VWS V14.01,2013-10-31 17:35:00,
2013-10-31 13:40:00,57.8,54.9,30.07,North,358,0.0,5.0,90,0.00,,---,0.00,VWS V14.01,2013-10-31 17:40:00,
2013-10-31 13:45:00,58.2,55.3,30.07,East,96,0.0,4.0,90,0.00,,---,0.00,VWS V14.01,2013-10-31 17:45:00,
2013-10-31 13:50:00,58.6,55.1,30.07,SW,226,0.0,5.0,88,0.00,,---,0.00,VWS V14.01,2013-10-31 17:50:00,
2013-10-31 13:55:00,58.7,54.8,30.07,SE,141,1.0,5.0,87,0.00,,---,0.00,VWS V14.01,2013-10-31 17:55:00,
2013-10-31 14:00:00,58.6,54.8,30.06,WSW,238,1.0,5.0,87,0.00,,---,0.00,VWS V14.01,2013-10-31 18:00:00,
2013-10-31 14:05:00,58.7,54.8,30.05,NW,322,1.0,5.0,87,0.00,,---,0.00,VWS V14.01,2013-10-31 18:05:00,
2013-10-31 14:10:00,58.7,54.8,30.05,East,84,0.0,3.0,87,0.00,,---,0.00,VWS V14.01,2013-10-31 18:10:00,
2013-10-31 14:15:00,58.8,54.6,30.05,WSW,245,0.0,5.0,86,0.00,,---,0.00,VWS V14.01,2013-10-31 18:15:00,
2013-10-31 14:20:00,58.8,54.6,30.04,SSW,204,0.0,6.0,86,0.00,,---,0.00,VWS V14.01,2013-10-31 18:20:00,
2013-10-31 14:25:00,58.8,54.6,30.05,East,94,4.0,5.0,86,0.00,,---,0.00,VWS V14.01,2013-10-31 18:25:00,
2013-10-31 14:30:00,58.9,54.4,30.05,NNW,348,0.0,7.0,85,0.00,,---,0.00,VWS V14.01,2013-10-31 18:30:00,
2013-10-31 14:35:00,58.9,54.4,30.05,WNW,294,0.0,2.0,85,0.00,,---,0.00,VWS V14.01,2013-10-31 18:35:00,
2013-10-31 14:40:00,59.1,54.6,30.04,North,357,0.0,1.0,85,0.00,,---,0.00,VWS V14.01,2013-10-31 18:40:00,
2013-10-31 14:45:00,59.2,54.7,30.03,ESE,117,0.0,6.0,85,0.00,,---,0.00,VWS V14.01,2013-10-31 18:45:00,
2013-10-31 14:50:00,59.3,54.8,30.03,WNW,292,2.0,5.0,85,0.00,,---,0.00,VWS V14.01,2013-10-31 18:50:00,
2013-10-31 14:55:00,59.3,54.5,30.03,East,96,0.0,3.0,84,0.00,,---,0.00,VWS V14.01,2013-10-31 18:55:00,
2013-10-31 15:00:00,59.3,54.5,30.04,WNW,289,4.0,6.0,84,0.00,,---,0.00,VWS V14.01,2013-10-31 19:00:00,
2013-10-31 15:05:00,59.4,54.6,30.03,NNW,343,0.0,4.0,84,0.00,,---,0.00,VWS V14.01,2013-10-31 19:05:00,
2013-10-31 15:10:00,59.4,54.6,30.03,West,264,0.0,4.0,84,0.00,,---,0.00,VWS V14.01,2013-10-31 19:10:00,
2013-10-31 15:15:00,59.4,54.6,30.03,SE,145,2.0,4.0,84,0.00,,---,0.00,VWS V14.01,2013-10-31 19:15:00,
2013-10-31 15:20:00,59.5,54.7,30.03,SSE,166,0.0,4.0,84,0.00,,---,0.00,VWS V14.01,2013-10-31 19:20:00,
2013-10-31 15:25:00,59.5,54.7,30.03,West,259,1.0,6.0,84,0.00,,---,0.00,VWS V14.01,2013-10-31 19:25:00,
2013-10-31 15:30:00,59.6,55.1,30.02,East,98,0.0,4.0,85,0.00,,---,0.00,VWS V14.01,2013-10-31 19:30:00,
2013-10-31 15:35:00,59.6,55.4,30.03,SSW,211,3.0,4.0,86,0.00,,---,0.00,VWS V14.01,2013-10-31 19:35:00,
2013-10-31 15:40:00,59.3,55.8,30.03,West,279,0.0,3.0,88,0.01,,---,0.01,VWS V14.01,2013-10-31 19:40:00,
2013-10-31 15:45:00,59.1,55.9,30.03,NE,40,0.0,1.0,89,0.01,,---,0.01,VWS V14.01,2013-10-31 19:45:00,
2013-10-31 15:50:00,58.8,55.9,30.03,SW,234,0.0,3.0,90,0.01,,---,0.01,VWS V14.01,2013-10-31 19:50:00,
2013-10-31 15:55:00,58.6,56.0,30.02,NE,35,0.0,2.0,91,0.01,,---,0.01,VWS V14.01,2013-10-31 19:55:00,
2013-10-31 16:00:00,58.4,55.8,30.02,NE,44,0.0,1.0,91,0.01,,---,0.01,VWS V14.01,2013-10-31 20:00:00,
2013-10-31 16:05:00,58.3,56.0,30.02,NE,44,0.0,0.0,92,0.01,,---,0.01,VWS V14.01,2013-10-31 20:05:00,
2013-10-31 16:10:00,58.2,55.9,30.02,NE,44,0.0,0.0,92,0.01,,---,0.01,VWS V14.01,2013-10-31 20:10:00,
2013-10-31 16:15:00,58.0,55.7,30.02,NE,44,0.0,0.0,92,0.01,,---,0.01,VWS V14.01,2013-10-31 20:15:00,
2013-10-31 16:20:00,57.9,55.9,30.02,NE,44,0.0,0.0,93,0.01,,---,0.01,VWS V14.01,2013-10-31 20:20:00,
2013-10-31 16:25:00,57.8,55.8,30.01,NE,44,0.0,1.0,93,0.01,,---,0.01,VWS V14.01,2013-10-31 20:25:00,
2013-10-31 16:30:00,57.7,55.7,30.01,NE,44,0.0,0.0,93,0.01,,---,0.01,VWS V14.01,2013-10-31 20:30:00,
2013-10-31 16:35:00,57.6,55.9,30.01,NE,44,0.0,0.0,94,0.01,,---,0.01,VWS V14.01,2013-10-31 20:35:00,
2013-10-31 16:40:00,57.5,55.8,30.00,NE,44,0.0,0.0,94,0.01,,---,0.01,VWS V14.01,2013-10-31 20:40:00,
2013-10-31 16:45:00,57.3,55.6,30.00,NE,44,0.0,0.0,94,0.00,,---,0.01,VWS V14.01,2013-10-31 20:45:00,
2013-10-31 16:50:00,57.2,55.5,30.00,NE,44,0.0,0.0,94,0.00,,---,0.01,VWS V14.01,2013-10-31 20:50:00,
2013-10-31 16:55:00,57.1,55.4,30.00,NE,44,0.0,0.0,94,0.00,,---,0.01,VWS V14.01,2013-10-31 20:55:00,
2013-10-31 17:00:00,57.1,55.4,30.00,NE,44,0.0,0.0,94,0.00,,---,0.01,VWS V14.01,2013-10-31 21:00:00,
2013-10-31 17:05:00,56.9,55.2,29.99,NE,44,0.0,0.0,94,0.00,,---,0.01,VWS V14.01,2013-10-31 21:05:00,
2013-10-31 17:10:00,56.8,55.4,29.99,NE,44,0.0,0.0,95,0.00,,---,0.01,VWS V14.01,2013-10-31 21:10:00,
2013-10-31 17:15:00,56.7,55.3,29.99,NE,44,0.0,0.0,95,0.00,,---,0.01,VWS V14.01,2013-10-31 21:15:00,
2013-10-31 17:20:00,56.7,55.3,29.99,NE,44,0.0,0.0,95,0.00,,---,0.01,VWS V14.01,2013-10-31 21:20:00,
2013-10-31 17:25:00,56.7,55.3,29.98,NE,44,0.0,0.0,95,0.00,,---,0.01,VWS V14.01,2013-10-31 21:25:00,
2013-10-31 17:30:00,56.7,55.3,29.98,NE,44,0.0,0.0,95,0.00,,---,0.01,VWS V14.01,2013-10-31 21:30:00,
2013-10-31 17:35:00,56.6,55.2,29.98,NE,44,0.0,0.0,95,0.00,,---,0.01,VWS V14.01,2013-10-31 21:35:00,
2013-10-31 17:40:00,56.8,55.7,29.97,NE,44,0.0,0.0,96,0.00,,---,0.01,VWS V14.01,2013-10-31 21:40:00,
2013-10-31 17:45:00,57.1,56.0,29.97,ENE,68,0.0,2.0,96,0.00,,---,0.01,VWS V14.01,2013-10-31 21:45:00,
2013-10-31 17:50:00,57.1,56.0,29.97,ENE,68,0.0,1.0,96,0.00,,---,0.01,VWS V14.01,2013-10-31 21:50:00,
2013-10-31 17:55:00,57.2,56.1,29.97,ENE,68,0.0,0.0,96,0.00,,---,0.01,VWS V14.01,2013-10-31 21:55:00,
2013-10-31 18:00:00,57.4,56.3,29.97,ENE,67,0.0,1.0,96,0.00,,---,0.01,VWS V14.01,2013-10-31 22:00:00,
2013-10-31 18:05:00,57.7,56.6,29.97,ENE,67,0.0,0.0,96,0.00,,---,0.01,VWS V14.01,2013-10-31 22:05:00,
2013-10-31 18:10:00,58.0,57.2,29.97,NNE,30,0.0,2.0,97,0.00,,---,0.01,VWS V14.01,2013-10-31 22:10:00,
2013-10-31 18:15:00,58.3,57.5,29.96,WNW,283,0.0,3.0,97,0.00,,---,0.01,VWS V14.01,2013-10-31 22:15:00,
2013-10-31 18:20:00,58.6,57.8,29.96,NNE,18,0.0,6.0,97,0.00,,---,0.01,VWS V14.01,2013-10-31 22:20:00,
2013-10-31 18:25:00,58.7,57.8,29.96,NE,35,0.0,3.0,97,0.00,,---,0.01,VWS V14.01,2013-10-31 22:25:00,
2013-10-31 18:30:00,58.9,58.0,29.96,ENE,59,1.0,5.0,97,0.00,,---,0.01,VWS V14.01,2013-10-31 22:30:00,
2013-10-31 18:35:00,59.0,57.9,29.96,East,88,0.0,4.0,96,0.00,,---,0.01,VWS V14.01,2013-10-31 22:35:00,
2013-10-31 18:40:00,59.1,58.0,29.95,East,81,0.0,3.0,96,0.00,,---,0.01,VWS V14.01,2013-10-31 22:40:00,
2013-10-31 18:45:00,59.3,58.2,29.95,North,357,0.0,4.0,96,0.00,,---,0.01,VWS V14.01,2013-10-31 22:45:00,
2013-10-31 18:50:00,59.3,58.2,29.96,SW,234,0.0,4.0,96,0.00,,---,0.01,VWS V14.01,2013-10-31 22:50:00,
2013-10-31 18:55:00,59.5,58.4,29.96,SSE,167,0.0,4.0,96,0.00,,---,0.01,VWS V14.01,2013-10-31 22:55:00,
2013-10-31 19:00:00,59.6,58.5,29.95,SE,129,2.0,3.0,96,0.00,,---,0.01,VWS V14.01,2013-10-31 23:00:00,
2013-10-31 19:05:00,59.7,58.6,29.95,SSW,208,0.0,3.0,96,0.00,,---,0.01,VWS V14.01,2013-10-31 23:05:00,
2013-10-31 19:10:00,59.7,58.6,29.95,South,190,3.0,4.0,96,0.00,,---,0.01,VWS V14.01,2013-10-31 23:10:00,
2013-10-31 19:15:00,59.8,58.4,29.95,North,352,0.0,4.0,95,0.00,,---,0.01,VWS V14.01,2013-10-31 23:15:00,
2013-10-31 19:20:00,59.9,58.5,29.95,South,190,1.0,6.0,95,0.00,,---,0.01,VWS V14.01,2013-10-31 23:20:00,
2013-10-31 19:25:00,60.0,58.6,29.95,West,273,4.0,10.0,95,0.00,,---,0.01,VWS V14.01,2013-10-31 23:25:00,
2013-10-31 19:30:00,60.2,58.5,29.94,ENE,78,2.0,7.0,94,0.00,,---,0.01,VWS V14.01,2013-10-31 23:30:00,
2013-10-31 19:35:00,60.2,58.5,29.94,South,178,1.0,4.0,94,0.00,,---,0.01,VWS V14.01,2013-10-31 23:35:00,
2013-10-31 19:40:00,60.2,58.5,29.94,WSW,250,0.0,10.0,94,0.00,,---,0.01,VWS V14.01,2013-10-31 23:40:00,
2013-10-31 19:45:00,60.3,58.3,29.94,ESE,105,1.0,4.0,93,0.00,,---,0.01,VWS V14.01,2013-10-31 23:45:00,
2013-10-31 19:50:00,60.3,58.3,29.94,SW,228,0.0,7.0,93,0.00,,---,0.01,VWS V14.01,2013-10-31 23:50:00,
2013-10-31 19:55:00,60.4,58.4,29.94,West,273,4.0,5.0,93,0.00,,---,0.01,VWS V14.01,2013-10-31 23:55:00,
2013-10-31 20:00:00,60.5,58.5,29.93,ESE,107,0.0,5.0,93,0.00,,---,0.01,VWS V14.01,2013-11-01 00:00:00,
2013-10-31 20:05:00,60.6,58.3,29.93,ENE,62,1.0,8.0,92,0.00,,---,0.01,VWS V14.01,2013-11-01 00:05:00,
2013-10-31 20:10:00,60.7,58.4,29.93,SW,229,0.0,6.0,92,0.00,,---,0.01,VWS V14.01,2013-11-01 00:10:00,
2013-10-31 20:15:00,60.7,58.4,29.92,ENE,65,2.0,6.0,92,0.00,,---,0.01,VWS V14.01,2013-11-01 00:15:00,
2013-10-31 20:20:00,60.7,58.4,29.92,ENE,77,0.0,4.0,92,0.00,,---,0.01,VWS V14.01,2013-11-01 00:20:00,
2013-10-31 20:25:00,60.9,58.3,29.92,WSW,253,5.0,6.0,91,0.00,,---,0.01,VWS V14.01,2013-11-01 00:25:00,
2013-10-31 20:30:00,60.9,58.3,29.91,West,281,1.0,6.0,91,0.00,,---,0.01,VWS V14.01,2013-11-01 00:30:00,
2013-10-31 20:35:00,61.0,58.4,29.91,WSW,243,3.0,6.0,91,0.00,,---,0.01,VWS V14.01,2013-11-01 00:35:00,
2013-10-31 20:40:00,61.1,58.2,29.91,NE,46,0.0,4.0,90,0.00,,---,0.01,VWS V14.01,2013-11-01 00:40:00,
2013-10-31 20:45:00,61.0,58.0,29.91,SW,223,3.0,6.0,90,0.00,,---,0.01,VWS V14.01,2013-11-01 00:45:00,
2013-10-31 20:50:00,61.0,58.0,29.91,NNE,30,0.0,4.0,90,0.00,,---,0.01,VWS V14.01,2013-11-01 00:50:00,
2013-10-31 20:55:00,61.0,58.0,29.91,SW,232,0.0,10.0,90,0.00,,---,0.01,VWS V14.01,2013-11-01 00:55:00,
2013-10-31 21:00:00,61.0,58.0,29.91,SSE,167,0.0,3.0,90,0.00,,---,0.01,VWS V14.01,2013-11-01 01:00:00,
2013-10-31 21:05:00,61.0,58.0,29.91,East,81,1.0,6.0,90,0.00,,---,0.01,VWS V14.01,2013-11-01 01:05:00,
2013-10-31 21:10:00,61.0,58.0,29.91,SW,222,1.0,10.0,90,0.00,,---,0.01,VWS V14.01,2013-11-01 01:10:00,
2013-10-31 21:15:00,61.1,58.2,29.91,NW,308,1.0,4.0,90,0.00,,---,0.01,VWS V14.01,2013-11-01 01:15:00,
2013-10-31 21:20:00,61.1,58.2,29.90,SSW,210,0.0,5.0,90,0.00,,---,0.01,VWS V14.01,2013-11-01 01:20:00,
2013-10-31 21:25:00,61.1,58.2,29.90,WSW,245,0.0,5.0,90,0.00,,---,0.01,VWS V14.01,2013-11-01 01:25:00,
2013-10-31 21:30:00,61.0,57.7,29.90,SSE,159,0.0,1.0,89,0.00,,---,0.01,VWS V14.01,2013-11-01 01:30:00,
2013-10-31 21:35:00,60.9,57.6,29.90,West,273,0.0,4.0,89,0.00,,---,0.01,VWS V14.01,2013-11-01 01:35:00,
2013-10-31 21:40:00,60.9,57.6,29.90,East,82,0.0,5.0,89,0.00,,---,0.01,VWS V14.01,2013-11-01 01:40:00,
2013-10-31 21:45:00,60.9,57.6,29.90,WNW,285,0.0,4.0,89,0.00,,---,0.01,VWS V14.01,2013-11-01 01:45:00,
2013-10-31 21:50:00,61.0,57.4,29.90,West,271,0.0,7.0,88,0.00,,---,0.01,VWS V14.01,2013-11-01 01:50:00,
2013-10-31 21:55:00,61.2,57.3,29.90,West,264,3.0,7.0,87,0.00,,---,0.01,VWS V14.01,2013-11-01 01:55:00,
2013-10-31 22:00:00,61.4,57.2,29.90,SW,221,0.0,6.0,86,0.00,,---,0.01,VWS V14.01,2013-11-01 02:00:00,
2013-10-31 22:05:00,61.4,57.2,29.89,NNW,331,0.0,2.0,86,0.00,,---,0.01,VWS V14.01,2013-11-01 02:05:00,
2013-10-31 22:10:00,61.4,57.2,29.89,SSE,152,1.0,6.0,86,0.00,,---,0.01,VWS V14.01,2013-11-01 02:10:00,
2013-10-31 22:15:00,61.3,57.1,29.89,North,351,2.0,4.0,86,0.00,,---,0.01,VWS V14.01,2013-11-01 02:15:00,
2013-10-31 22:20:00,61.3,57.4,29.89,ENE,67,1.0,10.0,87,0.00,,---,0.01,VWS V14.01,2013-11-01 02:20:00,
2013-10-31 22:25:00,61.1,57.2,29.89,ENE,69,0.0,3.0,87,0.00,,---,0.01,VWS V14.01,2013-11-01 02:25:00,
2013-10-31 22:30:00,60.8,57.2,29.89,WNW,289,3.0,4.0,88,0.00,,---,0.01,VWS V14.01,2013-11-01 02:30:00,
2013-10-31 22:35:00,60.7,57.1,29.88,ENE,75,0.0,6.0,88,0.00,,---,0.01,VWS V14.01,2013-11-01 02:35:00,
2013-10-31 22:40:00,60.5,57.2,29.88,SSW,204,3.0,4.0,89,0.00,,---,0.01,VWS V14.01,2013-11-01 02:40:00,
2013-10-31 22:45:00,60.4,57.5,29.88,NW,326,0.0,5.0,90,0.00,,---,0.01,VWS V14.01,2013-11-01 02:45:00,
2013-10-31 22:50:00,60.3,57.4,29.87,ESE,115,0.0,4.0,90,0.00,,---,0.01,VWS V14.01,2013-11-01 02:50:00,
2013-10-31 22:55:00,60.1,57.5,29.86,NNE,25,0.0,4.0,91,0.00,,---,0.01,VWS V14.01,2013-11-01 02:55:00,
2013-10-31 23:00:00,60.0,57.4,29.86,SSW,204,1.0,4.0,91,0.00,,---,0.01,VWS V14.01,2013-11-01 03:00:00,
2013-10-31 23:05:00,59.8,57.5,29.86,NNE,30,0.0,2.0,92,0.00,,---,0.01,VWS V14.01,2013-11-01 03:05:00,
2013-10-31 23:10:00,59.8,57.8,29.85,ENE,73,2.0,2.0,93,0.00,,---,0.01,VWS V14.01,2013-11-01 03:10:00,
2013-10-31 23:15:00,59.8,57.8,29.85,North,9,0.0,5.0,93,0.00,,---,0.01,VWS V14.01,2013-11-01 03:15:00,
2013-10-31 23:20:00,59.7,57.7,29.85,North,9,0.0,1.0,93,0.00,,---,0.01,VWS V14.01,2013-11-01 03:20:00,
2013-10-31 23:25:00,59.8,58.1,29.84,SW,229,1.0,4.0,94,0.00,,---,0.01,VWS V14.01,2013-11-01 03:25:00,
2013-10-31 23:30:00,59.8,58.1,29.83,SW,225,0.0,3.0,94,0.00,,---,0.01,VWS V14.01,2013-11-01 03:30:00,
2013-10-31 23:35:00,59.8,58.1,29.83,WSW,254,0.0,3.0,94,0.00,,---,0.01,VWS V14.01,2013-11-01 03:35:00,
2013-10-31 23:40:00,59.9,58.5,29.82,SSE,162,1.0,2.0,95,0.00,,---,0.01,VWS V14.01,2013-11-01 03:40:00,
2013-10-31 23:45:00,59.9,58.5,29.82,NNW,342,1.0,4.0,95,0.00,,---,0.01,VWS V14.01,2013-11-01 03:45:00,
2013-10-31 23:50:00,60.0,58.6,29.82,SW,235,0.0,3.0,95,0.00,,---,0.01,VWS V14.01,2013-11-01 03:50:00,
2013-10-31 23:55:00,60.1,58.7,29.81,NW,310,2.0,3.0,95,0.00,,---,0.01,VWS V14.01,2013-11-01 03:55:00,